sat.trackr.live / text

‹ back to catalog

UNKNOWN

NORAD 81995

UNKNOWN UNKNOWN UNKNOWN

§ Identity

Operator
Country
Launch date
Launch site
Launch vehicle
Mass (kg)
RCS (m²)

External: N2YO · Heavens-Above

§ Orbital elements

Epoch: 2026-09-18T07:02:34.508544Z

Period
102.37 min
Inclination
65.7429°
Eccentricity
0.0497024
Mean motion
14.06604984 rev/d
Perigee alt
510.7 km
Apogee alt
1,231.3 km
Semi-major
7,249.1 km
B*
7.1797e-4
RAAN
110.7770°
Arg perigee
158.4930°
Mean anomaly
203.7861°
Rev number
64,351

§ Raw data

UNKNOWN1 81995U          26261.29345496  .00003624  00000+0  71797-3 0  99992 81995  65.7429 110.7770 0497024 158.4930 203.7861 14.06604984643514

JSON: /api/v1/satellites/81995 · /tle

For live sub-satellite position, see the globe view (requires WebGL).

§ Visibility from observer

Set your observer location to see the next 7 days of passes ≥ 10°. The values pass through the URL so the page stays shareable.

No JS? Fill the form by hand. The geolocation button needs JavaScript.